Location: Malvern Link
(52.1333°N, 2.3000°W)
Time: 19:18:10
(UTC+00:00)

ARIANE 5 R/B - Pass Details

Date: 18 September 2020
Orbit: 620 x 657 km, 98.2° (Epoch: 09 October)

Event Time Altitude Azimuth Distance (km) Brightness Sun altitude
Exits shadow 21:15:16 62° 260° (W) 709 2.9 -25.9°
Drops below altitude 10° 21:19:33 10° 339° (NNW) 2,003 6.0 -26.4°
Sets 21:21:47 0° 343° (NNW) 2,913 6.9 -26.6°
